Content
SEND FEEDBACK

Daily
Averages
Monthly
Summary
United States of America

TRUCKEE, CALIFORNIA


Home > North America > United States > California
Elevation: 5966 feet     Latitude: 39 20N     Longitude: 120 11W

WEATHER
 
SELECT A DAY
Number of Records: 282,497;   Date Range: 1/1/95 - 8/30/14
 
SHARE

PRINT THIS DATA

[ ← Previous Day ]
WEATHER ALMANAC - JANUARY 19, 2013
[ Next Day → ]
[ °C ]   °F
Weather ElementAverageHighLow
Temperature11.9 °F32 °F (3:50 pm)-4 °F (6:55 am)
Dewpoint5.5 °F14 °F (11:45 am)-9.4 °F (6:55 am)
Humidity77.2 %92 % (2:55 am)43 % (1:45 pm)
Barometer30.39 in30.45 in (9:45 am)30.33 in (3:50 pm)
Wind Speed0.3 mph3.5 mph (12:55 am)
Weather ElementAverage
Visibility7.6 mi
Wind DirectionNNE (20.4 °)

Weather ElementTotal
Precipitation---
Heating Degree Days51 (Base 65)
Averaged from 45 records on January 19, 2013
WEATHER CONDITIONS BREAKOUT
WIND DIRECTION BREAKOUT
WEATHER BY HOUR - JANUARY 19, 2013
[ °C ]   °F
Local TimeTemperatureDewpointHumidityBarometerVisibilityWind DirectionWind SpeedGust SpeedPrecipitationEventsConditions
12:35 AM6.8 °F1.4 °F79 %30.39 in0.8 miCalmMist
12:55 AM3.2 °F-0.4 °F85 %30.39 in0.2 miSouth (170°)3.5 mphFogLight Freezing Fog
1:15 AM5.0 °F1.4 °F85 %30.40 in3.0 miCalmClear
1:35 AM6.8 °F3.2 °F85 %30.40 in3.0 miCalmClear
1:55 AM3.2 °F-0.4 °F85 %30.40 in0.2 miCalmFogLight Freezing Fog
2:15 AM3.2 °F-0.4 °F85 %30.40 in0.2 miCalmFogLight Freezing Fog
2:35 AM1.4 °F-2.2 °F85 %30.41 in0.2 miCalmFogLight Freezing Fog
2:55 AM1.4 °F-0.4 °F92 %30.40 in5.0 miCalmClear
3:15 AM3.2 °F-0.4 °F85 %30.40 in0.5 miCalmFogLight Freezing Fog
3:35 AM1.4 °F-2.2 °F85 %30.40 in1.8 miCalmClear
4:55 AM-0.4 °F-4.0 °F85 %30.39 in0.2 miCalmFogLight Freezing Fog
5:15 AM-2.2 °F-7.6 °F78 %30.39 in0.2 miCalmHaze
6:55 AM-4.0 °F-9.4 °F78 %30.42 in10.0 miCalmPartly Cloudy
7:55 AM-0.4 °F-4.0 °F85 %30.43 in10.0 miCalmPartly Cloudy
8:45 AM1.4 °F-2.2 °F85 %30.44 in10.0 miCalmClear
9:45 AM3.2 °F-0.4 °F85 %30.45 in10.0 miCalmClear
10:50 AM12.2 °F8.6 °F85 %30.44 in10.0 miCalmClear
11:45 AM17.6 °F14.0 °F86 %30.40 in10.0 miCalmClear
12:45 PM21.2 °F14.0 °F74 %30.37 in10.0 miCalmClear
1:45 PM28.4 °F8.6 °F43 %30.35 in10.0 miCalmClear
2:45 PM30.2 °F14.0 °F51 %30.34 in10.0 miCalmClear
3:50 PM32.0 °F12.2 °F44 %30.33 in10.0 miCalmClear
4:45 PM30.2 °F14.0 °F51 %30.34 in10.0 miCalmClear
4:55 PM26.6 °F12.2 °F55 %30.34 in10.0 miCalmClear
5:15 PM26.6 °F12.2 °F55 %30.34 in10.0 miCalmClear
5:35 PM23.0 °F10.4 °F59 %30.34 in10.0 miNNW (340°)3.5 mphClear
5:55 PM21.2 °F10.4 °F63 %30.35 in10.0 miCalmSnowLight Snow
6:15 PM17.6 °F10.4 °F73 %30.36 in10.0 miCalmSnowLight Snow
6:35 PM21.2 °F10.4 °F63 %30.36 in10.0 miCalmSnowLight Snow
6:55 PM19.4 °F10.4 °F68 %30.36 in10.0 miCalmSnowLight Snow
7:15 PM15.8 °F8.6 °F73 %30.37 in10.0 miCalmClear
7:35 PM15.8 °F10.4 °F79 %30.38 in10.0 miCalmClear
7:55 PM17.6 °F10.4 °F73 %30.39 in10.0 miCalmClear
8:15 PM15.8 °F10.4 °F79 %30.39 in10.0 miCalm
8:35 PM14.0 °F8.6 °F79 %30.39 in10.0 miCalmClear
8:55 PM14.0 °F8.6 °F79 %30.40 in10.0 miCalmClear
9:15 PM8.6 °F6.8 °F92 %30.40 in10.0 miSouth (190°)3.5 mphClear
9:35 PM12.2 °F8.6 °F85 %30.40 in10.0 miCalmClear
9:55 PM10.4 °F6.8 °F85 %30.41 in10.0 miCalmClear
10:15 PM10.4 °F6.8 °F85 %30.41 in10.0 miCalmClear
10:35 PM8.6 °F6.8 °F92 %30.41 in10.0 miCalmClear
10:55 PM8.6 °F6.8 °F92 %30.41 in10.0 miCalmClear
11:15 PM10.4 °F6.8 °F85 %30.41 in10.0 miSW (220°)3.5 mphClear
11:35 PM6.8 °F5.0 °F92 %30.41 in10.0 miCalmClear
11:55 PM5.0 °F1.4 °F85 %30.41 in8.0 miCalmClear
Hourly data recorded from KTRK, located miles away from Truckee, California







STORIES FROM OUR PARTNERS